User: anonymous   Login
Location: Unspecified
(0.0000°N, 0.0000°E)
Time: 07:31:14
(UTC+00:00)
Language:

Meteor 3-2 - Orbit

View from above orbital plane
View from above orbital plane
View from above satellite
View from above satellite

Ground track
Ground track

The orbit data is extracted from the following two-line orbital elements,

1 19336U 88064A   18174.68875703 -.00000112 +00000-0 -32304-3 0  9994
2 19336 082.5435 234.8471 0015738 297.5716 181.9472 13.17179255438054
Epoch (UTC): 23 June 2018 16:31:48
Eccentricity: 0.0015738
inclination: 82.5435°
perigee height: 1183 km
apogee height: 1207 km
right ascension of ascending node: 234.8471°
argument of perigee: 297.5716°
revolutions per day: 13.17179255
mean anomaly at epoch: 181.9472°
orbit number at epoch: 43805

The dashed part of the orbit path shows where the satellite is in the earth's shadow,  

DLR